Location: Newark
(49.8969°N, 3.3422°E)
Time: 05:48:25
(UTC+00:00)

A-11 Canister half - Pass Details

Date: 01 February 2020
Orbit: 1517 x 1683 km, 47.2° (Epoch: 27 February)

Event Time Altitude Azimuth Distance (km) Brightness Sun altitude
Rises 00:08:59 0° 262° (W) 4,740 - -57.4°
Reaches altitude 10° 00:12:05 10° 261° (W) 3,737 - -57.3°
Maximum altitude 00:21:28 77° 178° (S) 1,564 - -57.1°
Drops below altitude 10° 00:30:42 10° 94° (E) 3,679 - -56.8°
Sets 00:33:43 0° 93° (E) 4,663 - -56.7°
